CZ-6A DEB, 54512

Orbit data source: Space-Track

CZ-6A DEB, 54512 is space debris in SSO originally from a launch on Fri, 11 Nov 2022 UTC launched from the Taiyaun Space Center, China (TSC). Debris objects in space refer to the collection of defunct objects orbiting the Earth. Examples of debris include non-operational satellites, rocket bodies, and fragments generated from explosions, collisions, or faulty payload assembly.

Loading next visibility...
Identifier
54512, 2022-151JQ
Orbit
SSO
Country
Flag of CNCN / PRC
Related business
Manufacturer
SAST
Mission
Spacecraft
Bus & Motor
Unknown
Mass
Unknown
Launch date (UTC)
2022-11-11 (4 years ago)
Launch vehicle
Unknown
Launch site
Taiyaun Space Center, China (TSC)
Object type
Payload
Rocket body
Debris
Shape & HBR
Unknown shape, 0.1 m
Radar Cross Section
Medium (>0.1 m² and <1 m²)

Expand to show TLE details & history
Last TLE update: 2 days ago

TLE from 2 days ago
0 CZ-6A DEB
1 54512U 22151JQ  26171.12840324  .00006791  00000-0  11560-2 0  9997
2 54512  98.5906 230.8004 0088039 279.1963  79.9289 14.66873089188652
Epoch: 2026-06-20T03:04Z
TLE epoch observation values (Epoch: 2026-06-20T03:04:54.039Z)
Latitude
-0.00006°
Longitude
-83.77223°
Altitude
663.727 km
Speed
7.531 km/s
True Right ascension
15h 23m 12s
True Declination
0° 00' 00"
Sunlit
Object was in full shadow at epoch
Visualization orbit readout
Latitude
Unknown
Longitude
Unknown
Altitude
Unknown
Speed
Unknown
Apparent Right ascension
Unknown
Apparent Declination
Unknown
Sunlit
N/A
Visualization observer readout
Local Sidereal Time
21:36:28
Azimuth
Unknown
Elevation
Unknown
Doppler factor
Unknown
Orbital elements
Apogee altitude
730.193 km
Perigee altitude
606.123 km
Semi-major axis
7,046.295 km
Eccentricity
0.0088
Inclination
98.5906°
RAAN
230.8004°
Arg. of periapsis
279.1963°
True anomaly
80.92407°
Mean anomaly
79.9289°
Eccentric anomaly
80.4263°
Mean motion
3.66946 °/min
Orbital period
98.11 mins
BSTAR
0.001156
Loading maneuver chart data...
Computing Atmospheric mass density...
Loading historical data...
Loading historical data...
Loading historical data...
Loading historical data...
Loading historical data...
Loading historical data...
Loading historical data...

Documentation

Showing up to 5 results
|